Chicago Executive, IL

1:08 AM CDT on May 28, 2017 (GMT -0500)
Chicago Executive

Weather History for KPWK - October, 2012

Change the Weather History Date:

Sunday, October 14, 2012

  Actual Average Record
Temperature  
Mean Temperature 59 °F 53 °F  
Max Temperature 70 °F 62 °F 75 °F (2005)
Min Temperature 48 °F 43 °F 33 °F (2002)
Degree Days  
Heating Degree Days 6 13  
Month to date heating degree days 190 147  
Since 1 July heating degree days 324 259  
Cooling Degree Days 0 0  
Month to date cooling degree days 0 11  
Year to date cooling degree days 1225 789  
Growing Degree Days 8 (Base 50)    
Moisture  
Dew Point 57 °F    
Average Humidity 88    
Maximum Humidity 96    
Minimum Humidity 73    
Precipitation  
Precipitation 1.11 in 0.09 in 1.16 in (2014)
Month to date precipitation 1.88 1.40  
Year to date precipitation 18.17 27.09  
Sea Level Pressure  
Sea Level Pressure 29.61 in    
Wind  
Wind Speed 13 mph (SSW)    
Max Wind Speed 28 mph    
Max Gust Speed 37 mph    
Visibility 6 miles    
Events Rain , Thunderstorm    
T = Trace of Precipitation, MM = Missing Value Source: NWS Daily Summary

Daily Weather History Graph

Daily Weather History Graph

Search for Another Location

Airport or City:

Trip Planner

Search our weather history database for the weather conditions in past years. The results will help you decide how hot, cold, wet, or windy it might be!

Date:

Astronomy

Oct. 14, 2012 Rise Set
Actual Time 7:03 AM CDT 6:10 PM CDT
Civil Twilight 6:35 AM CDT 6:38 PM CDT
Nautical Twilight 6:02 AM CDT 7:11 PM CDT
Astronomical Twilight 5:30 AM CDT 7:43 PM CDT
Moon 6:02 AM CDT (10/14) 5:30 PM CDT (10/14)
Length of Visible Light 12h 03m
Length of Day
11h 07m
Waning Crescent, 1% of the Moon is Illuminated
Oct 14
Waning Crescent
Oct 15
New
Oct 21
First Quarter
Oct 29
Full
Nov 6
Last Quarter

Hourly Weather History & Observations

Time (CDT) Temp. Dew Point Humidity Pressure Visibility Wind Dir Wind Speed Gust Speed Precip Events Conditions
12:20 AM 66.2 °F 62.6 °F 88% 29.80 in 7.0 mi SSW 10.4 mph - N/A   Overcast
12:40 AM 66.2 °F 62.6 °F 88% 29.78 in 7.0 mi SSW 12.7 mph - N/A   Mostly Cloudy
12:52 AM 66.0 °F 62.1 °F 87% 29.77 in 7.0 mi South 12.7 mph 20.7 mph N/A   Scattered Clouds
1:52 AM 66.0 °F 62.1 °F 87% 29.76 in 7.0 mi SSW 5.8 mph - N/A   Clear
2:52 AM 66.0 °F 62.1 °F 87% 29.73 in 7.0 mi South 11.5 mph - N/A   Mostly Cloudy
3:16 AM 64.4 °F 62.6 °F 94% 29.73 in 4.0 mi South 10.4 mph - 0.01 in Rain Light Rain
3:25 AM 64.4 °F 62.6 °F 94% 29.72 in 4.0 mi South 10.4 mph - 0.01 in Rain Light Rain
3:52 AM 64.9 °F 63.0 °F 93% 29.71 in 3.0 mi South 11.5 mph - 0.03 in Rain Light Rain
4:05 AM 64.4 °F 62.6 °F 94% 29.70 in 3.0 mi South 9.2 mph - 0.02 in Rain Light Rain
4:42 AM 64.4 °F 62.6 °F 94% 29.69 in 2.5 mi South 9.2 mph - 0.10 in Rain Rain
4:49 AM 64.4 °F 62.6 °F 94% 29.69 in 2.0 mi South 10.4 mph - 0.14 in Rain Heavy Rain
4:50 AM 64.0 °F 63.0 °F 96% 29.69 in 2.0 mi South 9.2 mph - 0.14 in Rain Heavy Rain
4:54 AM 64.4 °F 62.6 °F 94% 29.69 in 3.0 mi South 8.1 mph - 0.00 in Rain Light Rain
5:35 AM 64.4 °F 62.6 °F 94% 29.64 in 6.0 mi South 9.2 mph - 0.04 in Rain Light Rain
5:52 AM 64.0 °F 62.1 °F 93% 29.63 in 6.0 mi SSE 9.2 mph - 0.05 in Rain Light Rain
6:21 AM 64.4 °F 62.6 °F 94% 29.61 in 4.0 mi SSE 10.4 mph - 0.02 in Rain Light Rain
6:44 AM 64.4 °F 62.6 °F 94% 29.59 in 4.0 mi SSE 9.2 mph - 0.03 in Rain Light Rain
6:52 AM 64.0 °F 62.1 °F 93% 29.58 in 3.0 mi SSE 9.2 mph - 0.04 in Rain Light Rain
7:01 AM 64.4 °F 62.6 °F 94% 29.58 in 2.5 mi South 10.4 mph - 0.01 in Rain Light Rain
7:49 AM 64.4 °F 60.8 °F 88% 29.57 in 8.0 mi SSW 13.8 mph 24.2 mph 0.03 in   Overcast
7:52 AM 64.9 °F 61.0 °F 87% 29.56 in 8.0 mi SSW 13.8 mph 24.2 mph 0.03 in   Overcast
7:59 AM 64.4 °F 60.8 °F 88% 29.57 in 8.0 mi SSW 11.5 mph 20.7 mph N/A   Overcast
8:52 AM 64.9 °F 61.0 °F 87% 29.59 in 10.0 mi SSW 15.0 mph 23.0 mph N/A   Overcast
9:02 AM 64.4 °F 60.8 °F 88% 29.59 in 10.0 mi SSW 13.8 mph 24.2 mph N/A   Overcast
9:52 AM 64.9 °F 60.1 °F 84% 29.58 in 10.0 mi SSW 16.1 mph 27.6 mph N/A   Overcast
10:52 AM 66.0 °F 60.1 °F 81% 29.55 in 10.0 mi SSW 12.7 mph 25.3 mph N/A   Overcast
11:48 AM 64.4 °F 60.8 °F 88% 29.53 in 1.8 mi South 11.5 mph 23.0 mph 0.05 in Rain Light Rain
11:52 AM 64.0 °F 61.0 °F 90% 29.52 in 2.0 mi South 15.0 mph 20.7 mph 0.06 in Rain Rain
12:06 PM 64.4 °F 60.8 °F 88% 29.52 in 10.0 mi South 17.3 mph 27.6 mph 0.00 in Rain Light Rain
12:52 PM 66.0 °F 61.0 °F 84% 29.49 in 10.0 mi SSW 16.1 mph 27.6 mph 0.00 in   Overcast
1:52 PM 69.1 °F 60.1 °F 73% 29.45 in 10.0 mi SSW 11.5 mph 21.9 mph N/A   Mostly Cloudy
2:19 PM 66.2 °F 60.8 °F 83% 29.44 in 2.5 mi SW 12.7 mph 21.9 mph 0.10 in Rain , Thunderstorm Thunderstorms and Rain
2:23 PM - - N/A% - - North - - 0.18 in Thunderstorm Thunderstorm
3:00 PM 60.8 °F 55.4 °F 82% 29.49 in 3.0 mi SW 9.2 mph 17.3 mph 0.03 in Rain , Thunderstorm Thunderstorms and Rain
3:14 PM 60.8 °F 55.4 °F 82% 29.47 in 3.0 mi Variable 4.6 mph - 0.07 in Rain Rain
3:52 PM 60.1 °F 57.0 °F 90% 29.45 in 3.0 mi SSW 8.1 mph - 0.12 in Rain Rain
4:48 PM 59.0 °F 57.2 °F 94% 29.44 in 6.0 mi South 3.5 mph - 0.07 in Rain Light Rain
4:52 PM 59.0 °F 57.0 °F 93% 29.43 in 6.0 mi South 3.5 mph - 0.07 in Rain Light Rain
5:19 PM 59.0 °F 57.2 °F 94% 29.45 in 3.0 mi NW 20.7 mph 29.9 mph 0.02 in Rain Light Rain
5:25 PM 53.6 °F 51.8 °F 94% 29.48 in 2.0 mi NNW 21.9 mph 31.1 mph 0.02 in Rain Light Rain
5:32 PM 53.6 °F 50.0 °F 88% 29.49 in 4.0 mi NW 27.6 mph 35.7 mph 0.03 in Rain Light Rain
5:34 PM 53.6 °F 50.0 °F 88% 29.49 in 4.0 mi NNW 24.2 mph 35.7 mph 0.03 in Rain Light Rain
5:52 PM 51.1 °F 48.0 °F 89% 29.52 in 10.0 mi NW 20.7 mph 33.4 mph 0.04 in   Overcast
6:04 PM 51.8 °F 46.4 °F 82% 29.54 in 10.0 mi NW 19.6 mph 31.1 mph N/A   Overcast
6:36 PM 50.0 °F 46.4 °F 87% 29.59 in 7.0 mi NW 13.8 mph 28.8 mph 0.00 in Rain Light Rain
6:52 PM 50.0 °F 46.9 °F 89% 29.62 in 8.0 mi WNW 12.7 mph 23.0 mph 0.00 in Rain Light Rain
7:06 PM 50.0 °F 46.4 °F 87% 29.63 in 10.0 mi WNW 18.4 mph 26.5 mph 0.00 in Rain Light Rain
7:52 PM 50.0 °F 46.0 °F 86% 29.68 in 10.0 mi WNW 18.4 mph 26.5 mph 0.00 in   Overcast
8:37 PM 50.0 °F 44.6 °F 82% 29.71 in 10.0 mi WNW 12.7 mph 24.2 mph N/A   Overcast
8:52 PM 50.0 °F 45.0 °F 83% 29.72 in 10.0 mi WNW 16.1 mph 23.0 mph N/A   Overcast
9:52 PM 50.0 °F 44.1 °F 80% 29.75 in 10.0 mi NW 18.4 mph 23.0 mph N/A   Overcast
10:52 PM 48.9 °F 44.1 °F 83% 29.77 in 10.0 mi WNW 11.5 mph - N/A   Overcast
11:52 PM 48.0 °F 44.1 °F 86% 29.79 in 10.0 mi WNW 11.5 mph - N/A   Overcast